Weather in Yarkul

Russia / Novosibirsk Oblast     55°59′30″N   75°40′44″E
temp.,
°C
wind,
m/s
gust,
m/s
humid.,
%
clouds,
%
prec.,
mm/h
press.,
hPa
HPBL,
m
22 january, sat
sat2201:00−17s249486 0.0 103156
04:00−19s2297100 0.0 103231
07:00−20s2298100 0.0 103223
10:00−20s2297100 0.0 103330
13:00−16s2492100 0.0 1033102
16:00−15ssw249377 0.0 103359
19:00−21ssw221005 0.0 10349
22:00−23sw2210052 0.0 10369
23 january, sun
sun2301:00−24sw2210057 0.0 103614
04:00−26sw2210054 0.0 103611
07:00−26wsw2210058 0.0 103610
10:00−26wsw2210052 0.0 103712
13:00−19w23965 0.0 103769
16:00−16w24945 0.0 103693
19:00−20wnw2210051 0.0 103812
22:00−21nw2210059 0.0 103815
24 january, mon
mon2401:00−21nnw2210067 0.0 10399
04:00−22nne1110076 0.0 10409
07:00−22nnw11100100 0.0 10419
10:00−20w009938 0.0 104214
13:00−17sw119764 0.0 104240
16:00−16wsw22975 0.0 104241
19:00−21sw2210077 0.0 104214
22:00−22sw22100100 0.0 104225
25 january, tue
tue2501:00−19sw3499100 0.0 104149
04:00−16sw3596100 0.0 1039101
07:00−15sw3696100 0.0 1038111
10:00−15ssw3695100 0.0 1037112
13:00−14ssw3694100 0.0 1036169
16:00−12ssw4794100 0.0 1035229
19:00−13s4895100 0.0 1034215
22:00−14s4896100 0.0 1033209
26 january, wed
wed2601:00−14s4895100 0.0 1032224
04:00−14s3895100 0.1 1031242
07:00−14sse3795100 0.4 1030239
10:00−14sse3696100 0.6 1030249
13:00−13sse3594100 1.2 1029277
16:00−12sse3494100 0.6 1028315
19:00−13se2397100 0.9 102966
22:00−15se2298100 0.2 102933